SCP
0 0 -0 -0 -0 -0 -0 -0 -0 -0 -0 -0 -0 -0 -0 -0 -0 0 0 0 0 0 0 0 0 0 0 0 0 0 0 0 0 0 0 0 0 -0 -0 -0 0 0 0 0 -0 -0 -0
0 0 0 -0 -0 -0 -0 -0 -0 -0 -0 -0 -0 -0 -0 -0 -0 0 0 0 0 0 0 0 0 0 0 0 0 0 0 0 0 0 0 0 0 0 0 0 0 0 -0 -0 -0 -0 -0
0 0 0 -0 -0 -0 -0 -0 -0 -0 -0 -0 -0 -0 -0 -0 -0 0 0 0 0 0 0 0 0 0 0 0 0 0 0 0 0 0 0 0 0 0 0 0 -0 -0 -0 -0 -0 0 0
0 0 0 0 -0 -0 -0 -0 -0 -0 -0 -0 -0 -0 -0 -0 -0 0 0 0 0 -0 -0 -0 0 0 0 0 0 0 0 0 -0 0 0 0 0 0 0 0 0 0 0 0 0 0 0
0 0 0 0 -0 -0 -0 -0 -0 -0 -0 -0 -0 -0 -0 -0 -0 0 0 0 0 0 0 0 0 0 0 0 0 0 0 0 0 0 0 0 0 0 0 0 0 0 0 -0 -0 -0 0
0 0 0 -0 -0 -0 -0 -0 -0 -0 -0 -0 -0 -0 -0 -0 -0 0 0 0 0 -0 0 0 0 0 0 0 0 0 0 0 0 0 0 0 0 0 0 0 0 0 -0 -0 0 0 0
0 0 -0 -0 -0 -0 -0 -0 -0 -0 -0 -0 -0 -0 -0 -0 0 0 -0 0 0 0 0 0 0 0 0 0 0 0 0 0 0 0 0 0 0 0 0 0 0 0 0 0 0 0 0
0 0 0 -0 -0 -0 -0 -0 -0 -0 -0 -0 -0 -0 -0 -0 -0 -0 0 0 0 0 0 0 0 0 0 0 0 0 0 0 0 0 0 0 0 -0 0 0 0 0 0 0 0 0 0
0 0 0 -0 -0 -0 -0 -0 -0 -0 -0 -0 -0 -0 -0 -0 0 0 0 0 0 0 0 0 0 0 0 0 0 0 0 0 0 0 0 0 0 0 0 -0 0 0 0 0 0 0 0
0 0 -0 -0 -0 -0 -0 -0 -0 -0 -0 -0 -0 -0 0 -0 0 0 0 0 0 0 0 0 0 0 0 0 0 0 0 0 0 0 0 0 0 0 0 0 0 0 0 0 0 0 0
0 0 0 -0 -0 -0 -0 -0 -0 -0 -0 -0 -0 0 -0 0 0 0 -0 0 0 0 0 0 0 0 0 0 0 0 0 0 0 0 0 0 0 0 0 0 0 0 0 0 0 0 0
0 0 0 0 -0 -0 -0 -0 -0 -0 -0 -0 -0 0 -0 0 0 0 0 -0 0 0 0 0 0 0 0 0 0 0 0 0 0 0 0 0 0 0 -0 0 0 0 0 0 0 0 0
0 0 0 0 0 -0 -0 -0 -0 -0 -0 -0 -0 0 -0 -0 0 0 -0 0 0 0 -0 0 0 0 0 0 0 0 0 0 0 0 0 0 0 0 0 0 0 0 0 0 0 0 0
0 0 0 0 -0 -0 -0 -0 -0 -0 -0 -0 -0 0 0 0 -0 0 0 0 0 0 0 0 0 0 0 0 0 0 0 0 0 0 0 0 0 0 0 0 0 0 0 0 0 0 0
0 0 0 0 0 -0 -0 -0 -0 -0 -0 -0 -0 0 0 0 0 0 0 0 0 0 0 0 0 0 0 0 0 0 0 0 0 0 0 0 0 0 0 0 0 0 0 0 0 0 0
0 0 0 0 0 -0 -0 -0 0 -0 -0 -0 0 0 0 0 0 0 0 0 0 0 0 0 0 0 0 0 0 0 0 0 0 0 0 0 0 0 0 0 0 0 0 0 0 0 0
0 0 0 0 0 0 -0 -0 0 -0 -0 -0 0 0 0 0 0 0 0 0 0 0 0 0 0 0 0 0 0 0 0 0 0 0 0 0 0 0 0 0 0 0 0 0 0 0 0
0 0 -0 -0 -0 0 0 -0 0 0 0 0 0 0 0 0 0 0 0 0 0 0 0 0 0 0 0 0 0 0 0 0 0 0 0 0 0 0 0 0 0 0 0 0 0 -0 0
0 0 -0 -0 -0 0 0 -0 0 0 -0 0 0 0 0 0 0 0 0 0 0 0 0 0 0 0 0 0 0 0 0 0 0 0 0 0 0 0 0 0 0 0 0 -0 -0 -0 0
0 0 0 0 -0 0 -0 -0 -0 -0 -0 0 0 0 0 0 0 0 0 0 0 0 0 0 0 0 0 0 0 0 0 0 0 0 0 0 0 0 0 0 0 0 0 0 0 0 0
0 0 0 0 0 0 0 0 0 -0 -0 0 0 0 0 0 0 0 0 0 0 0 0 0 0 0 0 0 0 0 0 0 0 0 0 0 0 0 0 0 0 0 0 0 0 0 0
0 0 0 0 0 0 0 0 0 0 -0 0 0 0 0 0 0 0 0 0 0 0 0 0 0 0 0 0 0 0 0 0 0 0 0 0 0 0 0 0 0 0 0 0 0 0 0
0 0 0 0 0 0 0 0 0 0 0 0 0 0 0 0 0 0 0 0 0 0 0 0 0 0 0 0 0 0 0 0 0 0 0 0 0 0 0 0 0 0 0 0 0 0 0
0 0 0 0 0 0 0 0 0 0 0 -0 0 0 0 0 0 0 0 0 0 0 0 0 0 0 0 0 0 0 0 0 0 0 0 0 0 0 0 0 0 0 0 0 0 0 0
0 0 0 0 0 0 0 0 0 0 0 0 0 0 0 0 0 0 0 0 0 0 0 0 0 0 0 0 0 0 0 0 0 0 0 0 0 0 0 0 0 0 0 -0 0 -0 0
0 0 0 0 0 0 0 0 0 0 0 0 0 0 0 0 0 0 0 0 0 0 0 0 0 0 0 0 0 0 0 0 0 0 0 0 0 0 0 0 0 0 0 0 -0 -0 0
0 0 0 0 0 0 0 0 0 0 0 0 0 0 0 0 0 0 0 0 0 0 0 0 0 0 0 0 0 0 0 0 0 0 0 0 0 0 0 0 0 0 -0 -0 0 -0 0
0 0 0 0 0 0 0 0 0 0 0 0 0 0 0 0 0 0 0 0 0 0 0 0 0 0 0 0 0 0 0 0 0 0 0 0 0 0 0 0 0 0 -0 -0 0 0 0
0 0 0 0 0 0 0 0 0 0 0 0 0 0 0 0 0 0 0 0 0 0 0 0 0 0 0 0 0 0 0 0 0 0 0 0 0 0 0 0 0 0 0 0 0 0 0
Wind_Speed_500mb
59 57 56 55 53 51 50 47 45 42 41 36 29 19 14 15 18 22 21 14 12 13 19 17 10 5 12 10 3 9 20 24 27 33 31 27 29 25 15 24 38 15 18 45 44 49 47
62 61 59 57 56 55 52 48 45 41 38 34 29 22 17 17 21 23 17 11 14 18 16 11 6 14 11 8 7 14 20 23 22 20 21 24 30 30 21 21 19 32 41 42 54 60 65
65 63 61 60 58 57 53 49 44 40 35 32 27 22 19 21 24 21 13 14 16 18 15 6 9 19 10 4 2 9 17 22 28 15 15 17 19 19 29 16 26 43 29 32 48 49 23
67 66 63 61 60 58 56 52 47 40 34 32 25 21 22 24 26 17 12 14 16 19 12 2 6 21 12 9 2 8 13 16 22 18 23 28 21 22 27 31 42 27 17 17 18 20 30
66 68 67 65 62 60 57 55 50 42 34 31 26 21 22 25 24 15 11 9 13 14 5 8 13 18 17 9 4 11 17 14 26 31 28 32 29 27 36 14 13 13 11 19 20 27 22
68 69 69 68 65 62 59 56 52 45 35 26 23 19 20 22 20 14 14 7 9 14 13 24 24 18 18 7 15 24 5 11 29 36 36 34 30 10 14 4 10 13 16 15 27 26 28
66 68 70 70 67 63 60 56 53 48 39 26 18 14 13 15 13 11 16 17 18 7 19 21 26 17 22 2 17 29 18 14 27 29 15 33 9 14 23 15 12 12 18 26 33 17 26
64 66 69 70 68 64 60 57 53 48 43 30 17 12 12 8 4 9 13 24 24 23 25 35 48 38 26 27 14 32 9 5 20 14 27 14 14 23 39 32 15 18 26 22 23 27 28
61 65 68 71 70 67 62 58 55 50 45 36 24 13 10 4 5 8 13 17 26 24 12 35 33 28 28 19 28 41 19 16 7 13 19 14 23 35 24 33 33 24 20 12 19 31 33
60 63 67 69 70 69 66 61 57 53 47 40 30 16 9 6 8 21 18 22 18 25 4 10 12 9 19 27 22 34 8 3 3 13 19 16 23 32 27 32 29 29 13 18 25 25 34
59 63 66 68 70 70 68 64 59 55 50 46 34 15 5 6 6 15 27 24 32 1 6 13 14 15 13 15 20 9 12 11 12 17 17 31 26 27 24 17 22 13 18 18 24 30 19
57 61 64 68 70 72 70 68 61 57 51 46 34 14 6 4 2 25 30 23 18 3 8 10 11 9 6 25 38 38 7 12 31 24 20 20 31 15 20 35 27 41 29 36 13 12 16
55 58 62 66 70 72 72 69 65 58 52 42 34 16 6 11 2 23 30 21 4 5 16 16 22 32 29 35 24 7 9 9 11 12 11 13 15 19 34 45 31 28 19 14 10 7 14
54 57 60 64 68 72 74 71 65 59 55 40 32 16 1 2 6 26 17 6 5 17 20 22 25 31 23 28 27 30 24 15 16 11 10 10 14 15 40 27 17 19 10 6 11 5 29
53 56 59 63 67 71 72 71 68 60 54 46 28 8 4 3 9 19 8 1 8 12 23 20 23 17 15 38 25 23 23 16 12 8 3 7 9 32 20 22 15 14 11 3 4 9 9
50 53 57 61 67 69 68 67 67 62 53 46 24 3 7 4 16 7 2 9 8 24 21 16 8 15 29 28 22 24 14 16 14 23 19 10 19 3 19 34 19 29 13 4 3 7 11
49 52 55 60 64 67 64 65 65 64 57 44 14 8 5 15 15 3 4 5 8 29 26 10 16 21 20 21 25 24 12 21 10 13 16 9 5 16 15 8 35 26 5 5 7 6 5
46 49 55 59 63 63 62 62 62 64 59 47 11 6 2 19 3 8 6 17 35 32 17 10 17 13 17 19 12 21 15 12 15 1 7 5 5 9 30 44 33 24 1 30 5 17 10
45 48 52 58 60 61 61 58 54 55 59 59 29 10 1 18 4 7 13 21 32 27 12 3 3 6 13 16 11 11 21 42 50 20 2 8 1 11 22 11 14 8 24 31 25 6 22
43 44 50 54 57 59 60 59 54 43 39 42 17 8 14 12 24 14 13 13 20 29 17 22 6 19 15 16 16 14 26 17 48 44 29 19 13 15 23 34 26 43 39 40 30 10 13
39 40 46 52 55 59 60 60 57 44 30 32 21 12 19 10 15 34 24 16 24 15 27 35 12 14 18 14 19 22 23 39 32 44 6 8 10 13 27 34 36 40 49 49 41 33 17
39 40 44 49 52 57 59 58 57 52 28 27 16 16 20 34 28 21 22 13 26 26 19 15 12 23 17 18 19 31 20 15 16 17 13 8 10 12 33 32 39 48 43 28 24 18 13
37 38 42 46 50 56 58 55 53 50 42 15 25 25 16 22 20 13 16 29 26 36 17 49 34 25 22 14 34 42 51 61 44 32 38 20 19 14 30 27 31 24 10 11 14 13 5
36 38 41 44 47 51 53 51 47 43 38 28 21 33 12 9 16 16 37 37 30 34 27 37 39 24 18 41 57 55 55 62 63 47 42 19 12 9 19 15 10 7 10 8 16 19 29
40 43 42 42 43 48 48 47 46 39 33 29 15 21 13 9 24 30 37 35 38 40 36 45 44 34 27 30 11 16 10 11 15 5 12 18 10 10 7 6 28 15 7 6 7 39 13
44 44 44 42 42 44 45 43 43 40 33 27 15 11 11 21 5 40 40 32 18 16 19 25 52 36 52 6 7 10 8 22 14 14 12 26 2 5 8 18 25 1 5 15 11 15 11
50 46 44 41 42 41 41 40 39 41 36 28 15 10 13 22 27 26 20 20 25 24 14 36 30 24 20 5 11 10 13 18 8 13 16 13 10 11 8 10 13 3 33 23 6 16 33
53 46 42 39 40 39 39 37 36 37 37 34 12 11 16 20 61 19 22 51 56 38 11 34 25 15 9 10 7 8 7 9 10 14 18 10 7 6 5 7 13 46 41 8 12 34 41
45 40 38 38 39 38 38 37 37 36 36 36 35 20 24 28 52 66 49 44 55 58 48 17 19 32 7 4 7 6 8 11 12 8 12 9 6 11 9 10 38 57 10 28 23 36 45
Wind_Direction_500mb
25 23 22 20 18 17 15 14 14 16 16 20 24 29 31 26 18 9 8 28 73 101 113 126 119 47 5 350 99 26 29 21 5 351 2 343 358 359 4 317 336 344 312 315 319 307 298
25 24 24 24 22 20 19 18 16 18 20 22 28 30 31 21 11 6 15 66 103 125 122 108 52 358 351 293 313 333 340 350 354 341 336 336 353 341 308 326 326 298 301 306 299 289 285
27 25 24 24 23 22 19 18 18 20 22 23 26 32 26 11 5 8 42 92 117 131 132 104 13 0 337 305 216 315 330 330 330 301 302 312 321 319 312 308 284 295 296 289 279 275 272
27 26 24 25 23 23 20 19 19 21 22 23 28 31 20 16 7 24 76 104 121 134 138 144 334 334 294 357 29 262 308 311 314 320 316 300 282 281 270 262 274 275 274 280 279 350 330
27 26 25 23 23 22 20 18 18 18 19 21 27 31 24 18 20 49 78 121 148 158 198 272 301 336 280 280 341 311 290 307 320 316 299 292 263 251 272 257 299 273 268 319 320 346 324
26 25 24 23 21 19 18 17 17 17 15 15 21 28 25 23 35 56 57 25 267 248 272 288 277 303 256 272 328 320 317 287 318 306 302 301 256 207 275 259 255 317 329 313 307 307 292
22 22 21 21 20 18 16 15 14 15 12 5 4 8 14 25 44 39 5 346 330 275 270 238 286 238 298 284 311 293 270 300 319 332 313 313 315 253 258 290 311 321 304 288 290 310 354
19 19 18 17 16 16 14 12 11 10 10 4 342 345 3 355 51 28 9 10 351 315 300 282 260 267 285 280 280 304 218 236 314 310 316 337 313 325 322 310 322 296 276 294 304 337 326
18 16 15 14 14 13 12 10 7 6 5 2 350 317 342 30 342 323 344 358 344 316 292 295 249 226 259 223 264 275 243 265 309 325 306 311 292 304 312 317 310 293 301 302 312 319 295
15 14 12 10 10 10 9 7 4 1 359 356 349 329 306 317 348 345 20 335 317 333 317 251 166 232 230 250 267 267 205 167 239 274 281 280 300 297 302 286 285 285 303 324 315 312 292
12 11 9 8 7 6 6 6 3 359 356 353 349 340 289 14 20 23 354 335 335 314 344 163 153 201 223 221 270 267 210 191 235 281 295 283 283 282 294 315 316 305 323 322 318 303 321
9 8 6 5 4 2 1 1 2 357 354 351 352 346 169 202 318 349 334 319 314 356 255 137 118 321 332 304 305 306 194 293 307 274 265 284 341 342 344 1 5 344 339 324 339 320 286
5 5 4 2 1 360 358 357 358 356 350 351 348 338 216 231 64 345 319 335 7 220 344 18 358 357 326 301 306 32 315 284 268 328 331 340 316 316 34 348 343 347 343 327 326 354 257
2 1 1 1 359 358 355 354 354 354 347 350 345 352 44 141 47 313 349 359 265 335 19 3 354 323 301 360 2 346 344 335 323 49 13 326 332 348 348 339 314 330 327 141 271 293 295
359 359 359 358 356 355 353 351 351 354 350 343 346 309 72 100 4 296 322 293 301 23 19 3 338 316 354 350 344 347 352 311 18 74 120 357 247 327 321 356 345 298 322 244 137 239 276
355 356 356 355 354 352 353 352 349 352 355 342 349 10 319 130 321 58 320 248 347 28 359 23 322 0 333 328 343 349 333 304 16 40 43 337 310 280 326 327 291 333 281 0 43 307 285
351 352 352 352 353 353 355 356 352 353 357 353 348 343 185 358 316 279 240 332 354 358 37 7 313 303 318 341 343 337 296 319 48 15 16 15 130 288 331 305 305 309 13 346 202 215 241
349 349 350 351 352 354 356 0 358 354 358 8 17 328 318 348 249 239 34 343 351 322 10 14 351 349 338 341 316 302 282 303 21 144 346 112 248 293 294 289 281 256 163 283 195 284 233
348 348 350 351 354 356 358 1 4 1 355 355 343 286 328 353 21 345 343 350 311 353 342 196 296 311 309 289 302 306 303 328 321 346 132 180 288 307 307 310 357 7 308 311 298 14 279
344 347 350 351 352 357 358 0 5 8 355 352 353 335 349 8 25 20 343 307 321 308 300 22 338 333 321 311 313 292 311 304 320 322 318 174 188 196 260 272 287 293 290 288 292 268 277
339 343 348 349 352 356 359 0 3 9 12 10 11 26 14 323 340 319 302 282 293 334 6 357 332 315 327 314 306 287 303 304 300 291 329 182 238 247 264 274 282 287 290 292 289 257 246
335 338 343 346 349 352 355 359 3 7 21 35 24 3 335 298 300 300 283 351 351 340 344 317 323 332 322 298 289 312 329 313 272 302 255 173 253 254 271 281 282 279 279 289 283 294 279
330 333 337 341 345 348 350 357 0 7 14 39 11 356 324 287 304 333 347 333 340 356 339 330 314 300 289 343 337 314 296 281 263 265 267 255 269 279 273 284 289 288 242 262 289 289 264
321 322 327 335 339 344 346 352 356 6 13 6 18 350 300 291 326 324 329 347 334 322 297 303 328 314 355 331 323 303 281 271 268 258 236 233 251 250 280 278 250 219 95 316 267 274 273
320 315 319 324 332 338 342 346 349 359 3 357 10 349 325 300 309 310 339 322 343 331 334 327 324 339 339 346 323 301 304 311 293 47 196 214 240 303 295 277 279 288 23 261 222 289 20
300 308 312 316 324 332 337 342 344 349 359 2 25 356 339 315 277 339 329 337 329 321 304 313 321 327 333 330 279 270 298 282 319 315 27 8 332 229 271 289 291 296 358 295 273 270 12
302 297 303 308 318 325 330 336 341 342 348 359 350 334 326 288 283 310 314 300 304 333 294 305 353 333 347 288 287 269 274 289 303 344 336 323 319 271 303 286 271 86 10 354 13 309 326
286 291 294 303 312 318 324 329 335 337 337 340 22 40 310 289 291 276 297 304 295 288 275 304 338 9 332 0 336 350 324 348 334 327 296 302 283 291 328 273 280 352 351 346 274 302 314
278 280 290 299 306 311 317 324 330 332 331 329 325 310 261 263 266 289 295 302 286 277 257 254 261 319 294 322 332 325 316 294 330 298 291 305 325 287 265 253 301 315 91 340 325 326 322
Wind_Speed_850mb
59 57 56 55 53 51 50 47 45 42 41 36 29 19 14 15 18 22 21 14 12 13 19 17 10 5 12 10 3 9 20 24 27 33 31 27 29 25 15 24 38 15 18 45 44 49 47
62 61 59 57 56 55 52 48 45 41 38 34 29 22 17 17 21 23 17 11 14 18 16 11 6 14 11 8 7 14 20 23 22 20 21 24 30 30 21 21 19 32 41 42 54 60 65
65 63 61 60 58 57 53 49 44 40 35 32 27 22 19 21 24 21 13 14 16 18 15 6 9 19 10 4 2 9 17 22 28 15 15 17 19 19 29 16 26 43 29 32 48 49 23
67 66 63 61 60 58 56 52 47 40 34 32 25 21 22 24 26 17 12 14 16 19 12 2 6 21 12 9 2 8 13 16 22 18 23 28 21 22 27 31 42 27 17 17 18 20 30
66 68 67 65 62 60 57 55 50 42 34 31 26 21 22 25 24 15 11 9 13 14 5 8 13 18 17 9 4 11 17 14 26 31 28 32 29 27 36 14 13 13 11 19 20 27 22
68 69 69 68 65 62 59 56 52 45 35 26 23 19 20 22 20 14 14 7 9 14 13 24 24 18 18 7 15 24 5 11 29 36 36 34 30 10 14 4 10 13 16 15 27 26 28
66 68 70 70 67 63 60 56 53 48 39 26 18 14 13 15 13 11 16 17 18 7 19 21 26 17 22 2 17 29 18 14 27 29 15 33 9 14 23 15 12 12 18 26 33 17 26
64 66 69 70 68 64 60 57 53 48 43 30 17 12 12 8 4 9 13 24 24 23 25 35 48 38 26 27 14 32 9 5 20 14 27 14 14 23 39 32 15 18 26 22 23 27 28
61 65 68 71 70 67 62 58 55 50 45 36 24 13 10 4 5 8 13 17 26 24 12 35 33 28 28 19 28 41 19 16 7 13 19 14 23 35 24 33 33 24 20 12 19 31 33
60 63 67 69 70 69 66 61 57 53 47 40 30 16 9 6 8 21 18 22 18 25 4 10 12 9 19 27 22 34 8 3 3 13 19 16 23 32 27 32 29 29 13 18 25 25 34
59 63 66 68 70 70 68 64 59 55 50 46 34 15 5 6 6 15 27 24 32 1 6 13 14 15 13 15 20 9 12 11 12 17 17 31 26 27 24 17 22 13 18 18 24 30 19
57 61 64 68 70 72 70 68 61 57 51 46 34 14 6 4 2 25 30 23 18 3 8 10 11 9 6 25 38 38 7 12 31 24 20 20 31 15 20 35 27 41 29 36 13 12 16
55 58 62 66 70 72 72 69 65 58 52 42 34 16 6 11 2 23 30 21 4 5 16 16 22 32 29 35 24 7 9 9 11 12 11 13 15 19 34 45 31 28 19 14 10 7 14
54 57 60 64 68 72 74 71 65 59 55 40 32 16 1 2 6 26 17 6 5 17 20 22 25 31 23 28 27 30 24 15 16 11 10 10 14 15 40 27 17 19 10 6 11 5 29
53 56 59 63 67 71 72 71 68 60 54 46 28 8 4 3 9 19 8 1 8 12 23 20 23 17 15 38 25 23 23 16 12 8 3 7 9 32 20 22 15 14 11 3 4 9 9
50 53 57 61 67 69 68 67 67 62 53 46 24 3 7 4 16 7 2 9 8 24 21 16 8 15 29 28 22 24 14 16 14 23 19 10 19 3 19 34 19 29 13 4 3 7 11
49 52 55 60 64 67 64 65 65 64 57 44 14 8 5 15 15 3 4 5 8 29 26 10 16 21 20 21 25 24 12 21 10 13 16 9 5 16 15 8 35 26 5 5 7 6 5
46 49 55 59 63 63 62 62 62 64 59 47 11 6 2 19 3 8 6 17 35 32 17 10 17 13 17 19 12 21 15 12 15 1 7 5 5 9 30 44 33 24 1 30 5 17 10
45 48 52 58 60 61 61 58 54 55 59 59 29 10 1 18 4 7 13 21 32 27 12 3 3 6 13 16 11 11 21 42 50 20 2 8 1 11 22 11 14 8 24 31 25 6 22
43 44 50 54 57 59 60 59 54 43 39 42 17 8 14 12 24 14 13 13 20 29 17 22 6 19 15 16 16 14 26 17 48 44 29 19 13 15 23 34 26 43 39 40 30 10 13
39 40 46 52 55 59 60 60 57 44 30 32 21 12 19 10 15 34 24 16 24 15 27 35 12 14 18 14 19 22 23 39 32 44 6 8 10 13 27 34 36 40 49 49 41 33 17
39 40 44 49 52 57 59 58 57 52 28 27 16 16 20 34 28 21 22 13 26 26 19 15 12 23 17 18 19 31 20 15 16 17 13 8 10 12 33 32 39 48 43 28 24 18 13
37 38 42 46 50 56 58 55 53 50 42 15 25 25 16 22 20 13 16 29 26 36 17 49 34 25 22 14 34 42 51 61 44 32 38 20 19 14 30 27 31 24 10 11 14 13 5
36 38 41 44 47 51 53 51 47 43 38 28 21 33 12 9 16 16 37 37 30 34 27 37 39 24 18 41 57 55 55 62 63 47 42 19 12 9 19 15 10 7 10 8 16 19 29
40 43 42 42 43 48 48 47 46 39 33 29 15 21 13 9 24 30 37 35 38 40 36 45 44 34 27 30 11 16 10 11 15 5 12 18 10 10 7 6 28 15 7 6 7 39 13
44 44 44 42 42 44 45 43 43 40 33 27 15 11 11 21 5 40 40 32 18 16 19 25 52 36 52 6 7 10 8 22 14 14 12 26 2 5 8 18 25 1 5 15 11 15 11
50 46 44 41 42 41 41 40 39 41 36 28 15 10 13 22 27 26 20 20 25 24 14 36 30 24 20 5 11 10 13 18 8 13 16 13 10 11 8 10 13 3 33 23 6 16 33
53 46 42 39 40 39 39 37 36 37 37 34 12 11 16 20 61 19 22 51 56 38 11 34 25 15 9 10 7 8 7 9 10 14 18 10 7 6 5 7 13 46 41 8 12 34 41
45 40 38 38 39 38 38 37 37 36 36 36 35 20 24 28 52 66 49 44 55 58 48 17 19 32 7 4 7 6 8 11 12 8 12 9 6 11 9 10 38 57 10 28 23 36 45
Wind_Direction_850mb
25 23 22 20 18 17 15 14 14 16 16 20 24 29 31 26 18 9 8 28 73 101 113 126 119 47 5 350 99 26 29 21 5 351 2 343 358 359 4 317 336 344 312 315 319 307 298
25 24 24 24 22 20 19 18 16 18 20 22 28 30 31 21 11 6 15 66 103 125 122 108 52 358 351 293 313 333 340 350 354 341 336 336 353 341 308 326 326 298 301 306 299 289 285
27 25 24 24 23 22 19 18 18 20 22 23 26 32 26 11 5 8 42 92 117 131 132 104 13 0 337 305 216 315 330 330 330 301 302 312 321 319 312 308 284 295 296 289 279 275 272
27 26 24 25 23 23 20 19 19 21 22 23 28 31 20 16 7 24 76 104 121 134 138 144 334 334 294 357 29 262 308 311 314 320 316 300 282 281 270 262 274 275 274 280 279 350 330
27 26 25 23 23 22 20 18 18 18 19 21 27 31 24 18 20 49 78 121 148 158 198 272 301 336 280 280 341 311 290 307 320 316 299 292 263 251 272 257 299 273 268 319 320 346 324
26 25 24 23 21 19 18 17 17 17 15 15 21 28 25 23 35 56 57 25 267 248 272 288 277 303 256 272 328 320 317 287 318 306 302 301 256 207 275 259 255 317 329 313 307 307 292
22 22 21 21 20 18 16 15 14 15 12 5 4 8 14 25 44 39 5 346 330 275 270 238 286 238 298 284 311 293 270 300 319 332 313 313 315 253 258 290 311 321 304 288 290 310 354
19 19 18 17 16 16 14 12 11 10 10 4 342 345 3 355 51 28 9 10 351 315 300 282 260 267 285 280 280 304 218 236 314 310 316 337 313 325 322 310 322 296 276 294 304 337 326
18 16 15 14 14 13 12 10 7 6 5 2 350 317 342 30 342 323 344 358 344 316 292 295 249 226 259 223 264 275 243 265 309 325 306 311 292 304 312 317 310 293 301 302 312 319 295
15 14 12 10 10 10 9 7 4 1 359 356 349 329 306 317 348 345 20 335 317 333 317 251 166 232 230 250 267 267 205 167 239 274 281 280 300 297 302 286 285 285 303 324 315 312 292
12 11 9 8 7 6 6 6 3 359 356 353 349 340 289 14 20 23 354 335 335 314 344 163 153 201 223 221 270 267 210 191 235 281 295 283 283 282 294 315 316 305 323 322 318 303 321
9 8 6 5 4 2 1 1 2 357 354 351 352 346 169 202 318 349 334 319 314 356 255 137 118 321 332 304 305 306 194 293 307 274 265 284 341 342 344 1 5 344 339 324 339 320 286
5 5 4 2 1 360 358 357 358 356 350 351 348 338 216 231 64 345 319 335 7 220 344 18 358 357 326 301 306 32 315 284 268 328 331 340 316 316 34 348 343 347 343 327 326 354 257
2 1 1 1 359 358 355 354 354 354 347 350 345 352 44 141 47 313 349 359 265 335 19 3 354 323 301 360 2 346 344 335 323 49 13 326 332 348 348 339 314 330 327 141 271 293 295
359 359 359 358 356 355 353 351 351 354 350 343 346 309 72 100 4 296 322 293 301 23 19 3 338 316 354 350 344 347 352 311 18 74 120 357 247 327 321 356 345 298 322 244 137 239 276
355 356 356 355 354 352 353 352 349 352 355 342 349 10 319 130 321 58 320 248 347 28 359 23 322 0 333 328 343 349 333 304 16 40 43 337 310 280 326 327 291 333 281 0 43 307 285
351 352 352 352 353 353 355 356 352 353 357 353 348 343 185 358 316 279 240 332 354 358 37 7 313 303 318 341 343 337 296 319 48 15 16 15 130 288 331 305 305 309 13 346 202 215 241
349 349 350 351 352 354 356 0 358 354 358 8 17 328 318 348 249 239 34 343 351 322 10 14 351 349 338 341 316 302 282 303 21 144 346 112 248 293 294 289 281 256 163 283 195 284 233
348 348 350 351 354 356 358 1 4 1 355 355 343 286 328 353 21 345 343 350 311 353 342 196 296 311 309 289 302 306 303 328 321 346 132 180 288 307 307 310 357 7 308 311 298 14 279
344 347 350 351 352 357 358 0 5 8 355 352 353 335 349 8 25 20 343 307 321 308 300 22 338 333 321 311 313 292 311 304 320 322 318 174 188 196 260 272 287 293 290 288 292 268 277
339 343 348 349 352 356 359 0 3 9 12 10 11 26 14 323 340 319 302 282 293 334 6 357 332 315 327 314 306 287 303 304 300 291 329 182 238 247 264 274 282 287 290 292 289 257 246
335 338 343 346 349 352 355 359 3 7 21 35 24 3 335 298 300 300 283 351 351 340 344 317 323 332 322 298 289 312 329 313 272 302 255 173 253 254 271 281 282 279 279 289 283 294 279
330 333 337 341 345 348 350 357 0 7 14 39 11 356 324 287 304 333 347 333 340 356 339 330 314 300 289 343 337 314 296 281 263 265 267 255 269 279 273 284 289 288 242 262 289 289 264
321 322 327 335 339 344 346 352 356 6 13 6 18 350 300 291 326 324 329 347 334 322 297 303 328 314 355 331 323 303 281 271 268 258 236 233 251 250 280 278 250 219 95 316 267 274 273
320 315 319 324 332 338 342 346 349 359 3 357 10 349 325 300 309 310 339 322 343 331 334 327 324 339 339 346 323 301 304 311 293 47 196 214 240 303 295 277 279 288 23 261 222 289 20
300 308 312 316 324 332 337 342 344 349 359 2 25 356 339 315 277 339 329 337 329 321 304 313 321 327 333 330 279 270 298 282 319 315 27 8 332 229 271 289 291 296 358 295 273 270 12
302 297 303 308 318 325 330 336 341 342 348 359 350 334 326 288 283 310 314 300 304 333 294 305 353 333 347 288 287 269 274 289 303 344 336 323 319 271 303 286 271 86 10 354 13 309 326
286 291 294 303 312 318 324 329 335 337 337 340 22 40 310 289 291 276 297 304 295 288 275 304 338 9 332 0 336 350 324 348 334 327 296 302 283 291 328 273 280 352 351 346 274 302 314
278 280 290 299 306 311 317 324 330 332 331 329 325 310 261 263 266 289 295 302 286 277 257 254 261 319 294 322 332 325 316 294 330 298 291 305 325 287 265 253 301 315 91 340 325 326 322